Preview of NWS' New Version of Forecast
This preview is not operational and should not be used for support decisions.

Regional Weather Roundup (RWR)

Issued by National Weather Service (NWS)

                            
000
ASUS44 KMEG 221610
RWRTN 
TENNESSEE HOURLY STATE WEATHER ROUNDUP
NATIONAL WEATHER SERVICE MEMPHIS TN
1100 AM CDT WED MAY 22 2019

TNZ002-004-019-021-049-052-054-088>092-221700-
WEST TENNESSEE
  
CITY           SKY/WX    TMP DP  RH WIND       PRES   REMARKS
MEMPHIS INTL   PTSUNNY   77  71  82 S6        29.95F                  
NWS MEMPHIS      N/A     76 N/A N/A MISG        N/A                   
JACKSON        CLOUDY    77  71  82 S6        29.98S                  
DYERSBURG      PTSUNNY   69  68  96 E7          N/A                   
SOMERVILLE     CLOUDY    75  70  83 W6        29.97R                  
COVINGTON      PTSUNNY   70  68  94 SE7       29.96S                  
UNION CITY     MOSUNNY   66  66 100 E7        29.96F FOG              
BOLIVAR        CLOUDY    81  72  74 VRB7G15   29.98R                  
PARIS          CLOUDY    75  70  83 S7G14     29.98S                  
LEXINGTON      PTSUNNY   81  70  69 S12G22    29.99S                  
SELMER         PTSUNNY   81  70  69 S9G18     29.99S                  
SAVANNAH       PTSUNNY   84  70  61 S9G21     29.99F                  
$$

TNZ008-025-027-028-033-062-065-066-221700-
NORTH MIDDLE TENNESSEE
  
CITY           SKY/WX    TMP DP  RH WIND       PRES   REMARKS
NASHVILLE      CLOUDY    85  64  49 S14G23    30.05R                  
DICKSON        CLOUDY    79  70  73 SW10G17   30.02R                  
PORTLAND       SUNNY     82  66  57 S15       30.03R                  
CLARKSVILLE    PTSUNNY   81  67  62 S13       29.99F                  
LEBANON        SUNNY     82  66  57 S14       30.03S                  
SMYRNA         FAIR      82  68  62 SW8       30.06R                  
MURFREESBORO   SUNNY     82  64  54 S13G18    30.04R                  
COOKEVILLE     SUNNY     84  61  45 S15G22    30.08R                  
LIVINGSTON     SUNNY     82  63  51 SW9G20    30.09R                  
CROSSVILLE     FAIR      79  61  53 S10G20    30.15R                  
ROCKWOOD       SUNNY     79  64  61 VRB7      30.13R                  
$$

TNZ061-075-076-078-094-096-097-221700-
SOUTH MIDDLE TENNESSEE
  
CITY           SKY/WX    TMP DP  RH WIND       PRES   REMARKS
LAWRENCEBURG   SUNNY     81  66  61 S9        30.05S                  
LEWISBURG      SUNNY     82  66  57 S9G18     30.05S                  
FAYETTEVILLE   SUNNY     82  66  57 SW12      30.07S                  
TULLAHOMA      SUNNY     82  64  54 SW7G15    30.08R                  
WINCHESTER     SUNNY     84  59  42 S13G22    30.08R                  
MCMINNVILLE    SUNNY     84  57  39 SW10G20   30.08R                  
COLUMBIA       SUNNY     81  68  65 S10G17    30.02S                  
SHELBYVILLE    SUNNY     82  66  57 S12G20    30.06S                  
$$

TNZ017-018-042-046-047-221700-
NORTHEAST TENNESSEE
  
CITY           SKY/WX    TMP DP  RH WIND       PRES   REMARKS
TRI CITIES     FAIR      83  62  49 VRB6      30.15S                  
ELIZABETHTON   FAIR      84  63  48 SW9       30.14S                  
GREENEVILLE    SUNNY     82  61  47 VRB6G13   30.14R                  
$$

TNZ012-013-036-069-073-074-221700-
CENTRAL EAST TENNESSEE
  
CITY           SKY/WX    TMP DP  RH WIND       PRES   REMARKS
KNOXVILLE      FAIR      84  64  50 VRB5      30.09S                  
OAK RIDGE      FAIR      84  63  49 SE6       30.11R                  
DOWNTOWN KNOXV SUNNY     84  64  51 W6        30.10S                  
GATLINBURG     MOSUNNY   84  64  51 N3        30.09S                  
MORRISTOWN     SUNNY     84  63  48 VRB5      30.11S                  
JACKSBORO      SUNNY     82  63  51 S7G15     30.14R                  
$$

TNZ083-085-099-221700-
SOUTHEAST TENNESSEE
  
CITY           SKY/WX    TMP DP  RH WIND       PRES   REMARKS
CHATTANOOGA    FAIR      84  64  50 SW8       30.09R                  
DAYTON         SUNNY     82  66  57 SW9       30.09R                  
$$

SKY/WX REPORTED AS FAIR MEANS FEW OR NO CLOUDS BELOW
12 THOUSAND FEET.